<?xml version="1.0" encoding="UTF-8" standalone="no" ?>
<gpx version="1.1" creator="Visorando" xmlns:xsi="http://www.w3.org/2001/XMLSchema-instance" xmlns="http://www.topografix.com/GPX/1/1" xsi:schemaLocation="http://www.topografix.com/GPX/1/1 http://www.topografix.com/GPX/1/1/gpx.xsd">
<metadata>
  <name>Marmottes - Col des 2 Caïres - La Colmiane</name>
  <link href="https://www.visorando.com/randonnee-98485262/">
    <text>https://www.visorando.com/randonnee-98485262/</text>
  </link>
</metadata><wpt lat="44.071385" lon="7.221024">
  <ele>1500</ele>
  <time>2026-05-29T18:47:33.000Z</time>
  <name>Point de passage 1</name>
  <type>GENERIC</type>
</wpt><wpt lat="44.07108" lon="7.220919">
  <ele>1500</ele>
  <time>2026-05-29T23:48:20.000Z</time>
  <name>Point de passage 2</name>
  <type>GENERIC</type>
</wpt><trk>
  <name>Marmottes - Col des 2 Caïres - La Colmiane</name>
  <trkseg>
    <trkpt lat="44.071385" lon="7.221024">
      <ele>1500</ele>
      <time>2026-05-29T18:47:33.000Z</time>
    </trkpt>
    <trkpt lat="44.071485" lon="7.220838">
      <ele>1498</ele>
      <time>2026-05-29T18:47:52.000Z</time>
    </trkpt>
    <trkpt lat="44.07162" lon="7.220812">
      <ele>1499</ele>
      <time>2026-05-29T18:48:18.000Z</time>
    </trkpt>
    <trkpt lat="44.071771" lon="7.220625">
      <ele>1496</ele>
      <time>2026-05-29T18:48:41.000Z</time>
    </trkpt>
    <trkpt lat="44.071363" lon="7.220683">
      <ele>1498</ele>
      <time>2026-05-29T18:49:49.000Z</time>
    </trkpt>
    <trkpt lat="44.071261" lon="7.220716">
      <ele>1498</ele>
      <time>2026-05-29T18:50:01.000Z</time>
    </trkpt>
    <trkpt lat="44.071134" lon="7.220828">
      <ele>1500</ele>
      <time>2026-05-29T18:50:39.000Z</time>
    </trkpt>
    <trkpt lat="44.071027" lon="7.220583">
      <ele>1501</ele>
      <time>2026-05-29T18:51:13.000Z</time>
    </trkpt>
    <trkpt lat="44.070963" lon="7.21998">
      <ele>1502</ele>
      <time>2026-05-29T18:52:13.000Z</time>
    </trkpt>
    <trkpt lat="44.070898" lon="7.219747">
      <ele>1503</ele>
      <time>2026-05-29T18:52:44.000Z</time>
    </trkpt>
    <trkpt lat="44.070668" lon="7.219237">
      <ele>1505</ele>
      <time>2026-05-29T18:53:54.000Z</time>
    </trkpt>
    <trkpt lat="44.070162" lon="7.218438">
      <ele>1506</ele>
      <time>2026-05-29T18:55:32.000Z</time>
    </trkpt>
    <trkpt lat="44.069783" lon="7.218134">
      <ele>1509</ele>
      <time>2026-05-29T18:56:53.000Z</time>
    </trkpt>
    <trkpt lat="44.068978" lon="7.217867">
      <ele>1510</ele>
      <time>2026-05-29T18:58:38.000Z</time>
    </trkpt>
    <trkpt lat="44.068282" lon="7.217766">
      <ele>1510</ele>
      <time>2026-05-29T18:59:58.000Z</time>
    </trkpt>
    <trkpt lat="44.067748" lon="7.217752">
      <ele>1509</ele>
      <time>2026-05-29T19:00:59.000Z</time>
    </trkpt>
    <trkpt lat="44.066468" lon="7.218361">
      <ele>1504</ele>
      <time>2026-05-29T19:03:34.000Z</time>
    </trkpt>
    <trkpt lat="44.066089" lon="7.218514">
      <ele>1503</ele>
      <time>2026-05-29T19:04:19.000Z</time>
    </trkpt>
    <trkpt lat="44.065932" lon="7.218503">
      <ele>1503</ele>
      <time>2026-05-29T19:04:37.000Z</time>
    </trkpt>
    <trkpt lat="44.065916" lon="7.218451">
      <ele>1501</ele>
      <time>2026-05-29T19:04:42.000Z</time>
    </trkpt>
    <trkpt lat="44.065982" lon="7.217861">
      <ele>1490</ele>
      <time>2026-05-29T19:05:31.000Z</time>
    </trkpt>
    <trkpt lat="44.065943" lon="7.21729">
      <ele>1487</ele>
      <time>2026-05-29T19:06:18.000Z</time>
    </trkpt>
    <trkpt lat="44.066042" lon="7.216532">
      <ele>1486</ele>
      <time>2026-05-29T19:07:21.000Z</time>
    </trkpt>
    <trkpt lat="44.066044" lon="7.216193">
      <ele>1485</ele>
      <time>2026-05-29T19:07:49.000Z</time>
    </trkpt>
    <trkpt lat="44.066036" lon="7.215981">
      <ele>1484</ele>
      <time>2026-05-29T19:08:06.000Z</time>
    </trkpt>
    <trkpt lat="44.065901" lon="7.215468">
      <ele>1487</ele>
      <time>2026-05-29T19:09:22.000Z</time>
    </trkpt>
    <trkpt lat="44.065872" lon="7.215397">
      <ele>1487</ele>
      <time>2026-05-29T19:09:29.000Z</time>
    </trkpt>
    <trkpt lat="44.06575" lon="7.215077">
      <ele>1489</ele>
      <time>2026-05-29T19:10:19.000Z</time>
    </trkpt>
    <trkpt lat="44.065335" lon="7.214449">
      <ele>1504</ele>
      <time>2026-05-29T19:14:03.000Z</time>
    </trkpt>
    <trkpt lat="44.065068" lon="7.213914">
      <ele>1514</ele>
      <time>2026-05-29T19:16:39.000Z</time>
    </trkpt>
    <trkpt lat="44.064644" lon="7.213217">
      <ele>1522</ele>
      <time>2026-05-29T19:19:16.000Z</time>
    </trkpt>
    <trkpt lat="44.064435" lon="7.212925">
      <ele>1531</ele>
      <time>2026-05-29T19:21:22.000Z</time>
    </trkpt>
    <trkpt lat="44.064256" lon="7.212774">
      <ele>1533</ele>
      <time>2026-05-29T19:22:07.000Z</time>
    </trkpt>
    <trkpt lat="44.063845" lon="7.212743">
      <ele>1541</ele>
      <time>2026-05-29T19:24:16.000Z</time>
    </trkpt>
    <trkpt lat="44.063377" lon="7.212992">
      <ele>1553</ele>
      <time>2026-05-29T19:27:17.000Z</time>
    </trkpt>
    <trkpt lat="44.063139" lon="7.213022">
      <ele>1556</ele>
      <time>2026-05-29T19:28:15.000Z</time>
    </trkpt>
    <trkpt lat="44.061873" lon="7.212734">
      <ele>1577</ele>
      <time>2026-05-29T19:34:18.000Z</time>
    </trkpt>
    <trkpt lat="44.061342" lon="7.212521">
      <ele>1585</ele>
      <time>2026-05-29T19:36:44.000Z</time>
    </trkpt>
    <trkpt lat="44.061086" lon="7.212502">
      <ele>1590</ele>
      <time>2026-05-29T19:38:05.000Z</time>
    </trkpt>
    <trkpt lat="44.060098" lon="7.212698">
      <ele>1603</ele>
      <time>2026-05-29T19:42:13.000Z</time>
    </trkpt>
    <trkpt lat="44.059749" lon="7.212919">
      <ele>1608</ele>
      <time>2026-05-29T19:43:48.000Z</time>
    </trkpt>
    <trkpt lat="44.059373" lon="7.213324">
      <ele>1616</ele>
      <time>2026-05-29T19:46:05.000Z</time>
    </trkpt>
    <trkpt lat="44.059224" lon="7.213573">
      <ele>1622</ele>
      <time>2026-05-29T19:47:33.000Z</time>
    </trkpt>
    <trkpt lat="44.059094" lon="7.213632">
      <ele>1620</ele>
      <time>2026-05-29T19:47:49.000Z</time>
    </trkpt>
    <trkpt lat="44.058959" lon="7.213794">
      <ele>1622</ele>
      <time>2026-05-29T19:48:30.000Z</time>
    </trkpt>
    <trkpt lat="44.058811" lon="7.213865">
      <ele>1622</ele>
      <time>2026-05-29T19:48:48.000Z</time>
    </trkpt>
    <trkpt lat="44.058637" lon="7.213948">
      <ele>1622</ele>
      <time>2026-05-29T19:49:09.000Z</time>
    </trkpt>
    <trkpt lat="44.058472" lon="7.214122">
      <ele>1630</ele>
      <time>2026-05-29T19:50:55.000Z</time>
    </trkpt>
    <trkpt lat="44.058248" lon="7.214153">
      <ele>1629</ele>
      <time>2026-05-29T19:51:21.000Z</time>
    </trkpt>
    <trkpt lat="44.057947" lon="7.214274">
      <ele>1636</ele>
      <time>2026-05-29T19:53:09.000Z</time>
    </trkpt>
    <trkpt lat="44.05783" lon="7.214362">
      <ele>1641</ele>
      <time>2026-05-29T19:54:16.000Z</time>
    </trkpt>
    <trkpt lat="44.05758" lon="7.214712">
      <ele>1662</ele>
      <time>2026-05-29T19:58:33.000Z</time>
    </trkpt>
    <trkpt lat="44.057429" lon="7.214706">
      <ele>1664</ele>
      <time>2026-05-29T19:59:11.000Z</time>
    </trkpt>
    <trkpt lat="44.057045" lon="7.214585">
      <ele>1676</ele>
      <time>2026-05-29T20:02:00.000Z</time>
    </trkpt>
    <trkpt lat="44.056798" lon="7.214357">
      <ele>1678</ele>
      <time>2026-05-29T20:02:55.000Z</time>
    </trkpt>
    <trkpt lat="44.056492" lon="7.214144">
      <ele>1689</ele>
      <time>2026-05-29T20:05:27.000Z</time>
    </trkpt>
    <trkpt lat="44.056096" lon="7.213775">
      <ele>1697</ele>
      <time>2026-05-29T20:07:44.000Z</time>
    </trkpt>
    <trkpt lat="44.055764" lon="7.213708">
      <ele>1705</ele>
      <time>2026-05-29T20:09:45.000Z</time>
    </trkpt>
    <trkpt lat="44.055605" lon="7.213604">
      <ele>1708</ele>
      <time>2026-05-29T20:10:36.000Z</time>
    </trkpt>
    <trkpt lat="44.055479" lon="7.213414">
      <ele>1708</ele>
      <time>2026-05-29T20:10:57.000Z</time>
    </trkpt>
    <trkpt lat="44.055317" lon="7.212902">
      <ele>1701</ele>
      <time>2026-05-29T20:11:43.000Z</time>
    </trkpt>
    <trkpt lat="44.055212" lon="7.212735">
      <ele>1701</ele>
      <time>2026-05-29T20:12:01.000Z</time>
    </trkpt>
    <trkpt lat="44.055011" lon="7.212598">
      <ele>1707</ele>
      <time>2026-05-29T20:13:28.000Z</time>
    </trkpt>
    <trkpt lat="44.054295" lon="7.212642">
      <ele>1715</ele>
      <time>2026-05-29T20:16:12.000Z</time>
    </trkpt>
    <trkpt lat="44.053888" lon="7.212745">
      <ele>1719</ele>
      <time>2026-05-29T20:17:41.000Z</time>
    </trkpt>
    <trkpt lat="44.053508" lon="7.212692">
      <ele>1714</ele>
      <time>2026-05-29T20:18:25.000Z</time>
    </trkpt>
    <trkpt lat="44.052914" lon="7.212821">
      <ele>1709</ele>
      <time>2026-05-29T20:19:34.000Z</time>
    </trkpt>
    <trkpt lat="44.053042" lon="7.212886">
      <ele>1711</ele>
      <time>2026-05-29T20:20:10.000Z</time>
    </trkpt>
    <trkpt lat="44.052725" lon="7.212713">
      <ele>1705</ele>
      <time>2026-05-29T20:20:49.000Z</time>
    </trkpt>
    <trkpt lat="44.052493" lon="7.212307">
      <ele>1704</ele>
      <time>2026-05-29T20:21:32.000Z</time>
    </trkpt>
    <trkpt lat="44.05225" lon="7.212032">
      <ele>1706</ele>
      <time>2026-05-29T20:22:28.000Z</time>
    </trkpt>
    <trkpt lat="44.052113" lon="7.211813">
      <ele>1708</ele>
      <time>2026-05-29T20:23:12.000Z</time>
    </trkpt>
    <trkpt lat="44.051864" lon="7.211602">
      <ele>1714</ele>
      <time>2026-05-29T20:24:47.000Z</time>
    </trkpt>
    <trkpt lat="44.051677" lon="7.211389">
      <ele>1721</ele>
      <time>2026-05-29T20:26:27.000Z</time>
    </trkpt>
    <trkpt lat="44.051371" lon="7.211292">
      <ele>1731</ele>
      <time>2026-05-29T20:28:46.000Z</time>
    </trkpt>
    <trkpt lat="44.051442" lon="7.211093">
      <ele>1733</ele>
      <time>2026-05-29T20:29:25.000Z</time>
    </trkpt>
    <trkpt lat="44.051444" lon="7.211007">
      <ele>1734</ele>
      <time>2026-05-29T20:29:42.000Z</time>
    </trkpt>
    <trkpt lat="44.0511" lon="7.211027">
      <ele>1737</ele>
      <time>2026-05-29T20:30:52.000Z</time>
    </trkpt>
    <trkpt lat="44.051188" lon="7.210847">
      <ele>1740</ele>
      <time>2026-05-29T20:31:41.000Z</time>
    </trkpt>
    <trkpt lat="44.051184" lon="7.210743">
      <ele>1742</ele>
      <time>2026-05-29T20:32:10.000Z</time>
    </trkpt>
    <trkpt lat="44.051083" lon="7.210379">
      <ele>1750</ele>
      <time>2026-05-29T20:34:04.000Z</time>
    </trkpt>
    <trkpt lat="44.051182" lon="7.210052">
      <ele>1754</ele>
      <time>2026-05-29T20:35:14.000Z</time>
    </trkpt>
    <trkpt lat="44.051203" lon="7.209626">
      <ele>1761</ele>
      <time>2026-05-29T20:37:01.000Z</time>
    </trkpt>
    <trkpt lat="44.051179" lon="7.2094">
      <ele>1764</ele>
      <time>2026-05-29T20:37:51.000Z</time>
    </trkpt>
    <trkpt lat="44.051202" lon="7.209266">
      <ele>1764</ele>
      <time>2026-05-29T20:38:02.000Z</time>
    </trkpt>
    <trkpt lat="44.05129" lon="7.209089">
      <ele>1761</ele>
      <time>2026-05-29T20:38:20.000Z</time>
    </trkpt>
    <trkpt lat="44.051319" lon="7.208807">
      <ele>1763</ele>
      <time>2026-05-29T20:39:04.000Z</time>
    </trkpt>
    <trkpt lat="44.051472" lon="7.208432">
      <ele>1760</ele>
      <time>2026-05-29T20:39:39.000Z</time>
    </trkpt>
    <trkpt lat="44.05159" lon="7.208234">
      <ele>1756</ele>
      <time>2026-05-29T20:40:00.000Z</time>
    </trkpt>
    <trkpt lat="44.051638" lon="7.207965">
      <ele>1760</ele>
      <time>2026-05-29T20:41:04.000Z</time>
    </trkpt>
    <trkpt lat="44.051612" lon="7.20766">
      <ele>1765</ele>
      <time>2026-05-29T20:42:21.000Z</time>
    </trkpt>
    <trkpt lat="44.051477" lon="7.20734">
      <ele>1775</ele>
      <time>2026-05-29T20:44:34.000Z</time>
    </trkpt>
    <trkpt lat="44.051051" lon="7.20671">
      <ele>1786</ele>
      <time>2026-05-29T20:47:38.000Z</time>
    </trkpt>
    <trkpt lat="44.050865" lon="7.206519">
      <ele>1788</ele>
      <time>2026-05-29T20:48:25.000Z</time>
    </trkpt>
    <trkpt lat="44.050364" lon="7.206147">
      <ele>1796</ele>
      <time>2026-05-29T20:50:52.000Z</time>
    </trkpt>
    <trkpt lat="44.049878" lon="7.205621">
      <ele>1797</ele>
      <time>2026-05-29T20:52:13.000Z</time>
    </trkpt>
    <trkpt lat="44.048702" lon="7.203409">
      <ele>1831</ele>
      <time>2026-05-29T21:01:49.000Z</time>
    </trkpt>
    <trkpt lat="44.04836" lon="7.20251">
      <ele>1834</ele>
      <time>2026-05-29T21:03:44.000Z</time>
    </trkpt>
    <trkpt lat="44.048206" lon="7.202258">
      <ele>1836</ele>
      <time>2026-05-29T21:04:32.000Z</time>
    </trkpt>
    <trkpt lat="44.047807" lon="7.201957">
      <ele>1855</ele>
      <time>2026-05-29T21:08:39.000Z</time>
    </trkpt>
    <trkpt lat="44.047782" lon="7.201771">
      <ele>1854</ele>
      <time>2026-05-29T21:08:55.000Z</time>
    </trkpt>
    <trkpt lat="44.047713" lon="7.201766">
      <ele>1859</ele>
      <time>2026-05-29T21:09:54.000Z</time>
    </trkpt>
    <trkpt lat="44.047678" lon="7.202002">
      <ele>1865</ele>
      <time>2026-05-29T21:11:16.000Z</time>
    </trkpt>
    <trkpt lat="44.047603" lon="7.201962">
      <ele>1869</ele>
      <time>2026-05-29T21:12:06.000Z</time>
    </trkpt>
    <trkpt lat="44.047527" lon="7.201738">
      <ele>1875</ele>
      <time>2026-05-29T21:13:28.000Z</time>
    </trkpt>
    <trkpt lat="44.047398" lon="7.20197">
      <ele>1886</ele>
      <time>2026-05-29T21:15:45.000Z</time>
    </trkpt>
    <trkpt lat="44.047411" lon="7.202083">
      <ele>1887</ele>
      <time>2026-05-29T21:16:05.000Z</time>
    </trkpt>
    <trkpt lat="44.047368" lon="7.202156">
      <ele>1890</ele>
      <time>2026-05-29T21:16:44.000Z</time>
    </trkpt>
    <trkpt lat="44.047269" lon="7.201981">
      <ele>1893</ele>
      <time>2026-05-29T21:17:33.000Z</time>
    </trkpt>
    <trkpt lat="44.047219" lon="7.20146">
      <ele>1898</ele>
      <time>2026-05-29T21:19:08.000Z</time>
    </trkpt>
    <trkpt lat="44.047149" lon="7.20148">
      <ele>1901</ele>
      <time>2026-05-29T21:19:47.000Z</time>
    </trkpt>
    <trkpt lat="44.046958" lon="7.201731">
      <ele>1905</ele>
      <time>2026-05-29T21:20:58.000Z</time>
    </trkpt>
    <trkpt lat="44.046921" lon="7.201833">
      <ele>1908</ele>
      <time>2026-05-29T21:21:38.000Z</time>
    </trkpt>
    <trkpt lat="44.046914" lon="7.201899">
      <ele>1908</ele>
      <time>2026-05-29T21:21:43.000Z</time>
    </trkpt>
    <trkpt lat="44.046914" lon="7.201899">
      <ele>1908</ele>
      <time>2026-05-29T21:21:43.000Z</time>
    </trkpt>
    <trkpt lat="44.046958" lon="7.201731">
      <ele>1905</ele>
      <time>2026-05-29T21:21:58.000Z</time>
    </trkpt>
    <trkpt lat="44.047149" lon="7.20148">
      <ele>1901</ele>
      <time>2026-05-29T21:22:28.000Z</time>
    </trkpt>
    <trkpt lat="44.047219" lon="7.20146">
      <ele>1898</ele>
      <time>2026-05-29T21:22:36.000Z</time>
    </trkpt>
    <trkpt lat="44.047269" lon="7.201981">
      <ele>1893</ele>
      <time>2026-05-29T21:23:19.000Z</time>
    </trkpt>
    <trkpt lat="44.047368" lon="7.202156">
      <ele>1890</ele>
      <time>2026-05-29T21:23:37.000Z</time>
    </trkpt>
    <trkpt lat="44.047411" lon="7.202083">
      <ele>1887</ele>
      <time>2026-05-29T21:23:45.000Z</time>
    </trkpt>
    <trkpt lat="44.047398" lon="7.20197">
      <ele>1886</ele>
      <time>2026-05-29T21:23:54.000Z</time>
    </trkpt>
    <trkpt lat="44.047527" lon="7.201738">
      <ele>1875</ele>
      <time>2026-05-29T21:24:18.000Z</time>
    </trkpt>
    <trkpt lat="44.047603" lon="7.201962">
      <ele>1869</ele>
      <time>2026-05-29T21:24:38.000Z</time>
    </trkpt>
    <trkpt lat="44.047678" lon="7.202002">
      <ele>1865</ele>
      <time>2026-05-29T21:24:47.000Z</time>
    </trkpt>
    <trkpt lat="44.047713" lon="7.201766">
      <ele>1859</ele>
      <time>2026-05-29T21:25:07.000Z</time>
    </trkpt>
    <trkpt lat="44.047782" lon="7.201771">
      <ele>1854</ele>
      <time>2026-05-29T21:25:15.000Z</time>
    </trkpt>
    <trkpt lat="44.047807" lon="7.201957">
      <ele>1855</ele>
      <time>2026-05-29T21:25:41.000Z</time>
    </trkpt>
    <trkpt lat="44.048206" lon="7.202258">
      <ele>1836</ele>
      <time>2026-05-29T21:26:33.000Z</time>
    </trkpt>
    <trkpt lat="44.04836" lon="7.20251">
      <ele>1834</ele>
      <time>2026-05-29T21:27:00.000Z</time>
    </trkpt>
    <trkpt lat="44.048702" lon="7.203409">
      <ele>1831</ele>
      <time>2026-05-29T21:28:24.000Z</time>
    </trkpt>
    <trkpt lat="44.049878" lon="7.205621">
      <ele>1797</ele>
      <time>2026-05-29T21:32:10.000Z</time>
    </trkpt>
    <trkpt lat="44.050364" lon="7.206147">
      <ele>1796</ele>
      <time>2026-05-29T21:33:20.000Z</time>
    </trkpt>
    <trkpt lat="44.050865" lon="7.206519">
      <ele>1788</ele>
      <time>2026-05-29T21:34:25.000Z</time>
    </trkpt>
    <trkpt lat="44.051051" lon="7.20671">
      <ele>1786</ele>
      <time>2026-05-29T21:34:51.000Z</time>
    </trkpt>
    <trkpt lat="44.051477" lon="7.20734">
      <ele>1775</ele>
      <time>2026-05-29T21:36:02.000Z</time>
    </trkpt>
    <trkpt lat="44.051612" lon="7.20766">
      <ele>1765</ele>
      <time>2026-05-29T21:36:33.000Z</time>
    </trkpt>
    <trkpt lat="44.051638" lon="7.207965">
      <ele>1760</ele>
      <time>2026-05-29T21:36:58.000Z</time>
    </trkpt>
    <trkpt lat="44.05159" lon="7.208234">
      <ele>1756</ele>
      <time>2026-05-29T21:37:21.000Z</time>
    </trkpt>
    <trkpt lat="44.051472" lon="7.208432">
      <ele>1760</ele>
      <time>2026-05-29T21:38:23.000Z</time>
    </trkpt>
    <trkpt lat="44.051319" lon="7.208807">
      <ele>1763</ele>
      <time>2026-05-29T21:39:29.000Z</time>
    </trkpt>
    <trkpt lat="44.05129" lon="7.209089">
      <ele>1761</ele>
      <time>2026-05-29T21:39:52.000Z</time>
    </trkpt>
    <trkpt lat="44.051202" lon="7.209266">
      <ele>1764</ele>
      <time>2026-05-29T21:40:41.000Z</time>
    </trkpt>
    <trkpt lat="44.051179" lon="7.2094">
      <ele>1764</ele>
      <time>2026-05-29T21:40:52.000Z</time>
    </trkpt>
    <trkpt lat="44.051203" lon="7.209626">
      <ele>1761</ele>
      <time>2026-05-29T21:41:11.000Z</time>
    </trkpt>
    <trkpt lat="44.051182" lon="7.210052">
      <ele>1754</ele>
      <time>2026-05-29T21:41:46.000Z</time>
    </trkpt>
    <trkpt lat="44.051083" lon="7.210379">
      <ele>1750</ele>
      <time>2026-05-29T21:42:15.000Z</time>
    </trkpt>
    <trkpt lat="44.051184" lon="7.210743">
      <ele>1742</ele>
      <time>2026-05-29T21:42:47.000Z</time>
    </trkpt>
    <trkpt lat="44.051188" lon="7.210847">
      <ele>1740</ele>
      <time>2026-05-29T21:42:56.000Z</time>
    </trkpt>
    <trkpt lat="44.0511" lon="7.211027">
      <ele>1737</ele>
      <time>2026-05-29T21:43:14.000Z</time>
    </trkpt>
    <trkpt lat="44.051444" lon="7.211007">
      <ele>1734</ele>
      <time>2026-05-29T21:43:53.000Z</time>
    </trkpt>
    <trkpt lat="44.051442" lon="7.211093">
      <ele>1733</ele>
      <time>2026-05-29T21:44:00.000Z</time>
    </trkpt>
    <trkpt lat="44.051371" lon="7.211292">
      <ele>1731</ele>
      <time>2026-05-29T21:44:18.000Z</time>
    </trkpt>
    <trkpt lat="44.051677" lon="7.211389">
      <ele>1721</ele>
      <time>2026-05-29T21:44:54.000Z</time>
    </trkpt>
    <trkpt lat="44.051864" lon="7.211602">
      <ele>1714</ele>
      <time>2026-05-29T21:45:22.000Z</time>
    </trkpt>
    <trkpt lat="44.052129" lon="7.21183">
      <ele>1708</ele>
      <time>2026-05-29T21:45:58.000Z</time>
    </trkpt>
    <trkpt lat="44.052217" lon="7.211983">
      <ele>1707</ele>
      <time>2026-05-29T21:46:14.000Z</time>
    </trkpt>
    <trkpt lat="44.052493" lon="7.212307">
      <ele>1704</ele>
      <time>2026-05-29T21:46:55.000Z</time>
    </trkpt>
    <trkpt lat="44.052725" lon="7.212713">
      <ele>1705</ele>
      <time>2026-05-29T21:47:48.000Z</time>
    </trkpt>
    <trkpt lat="44.05282" lon="7.21279">
      <ele>1707</ele>
      <time>2026-05-29T21:48:21.000Z</time>
    </trkpt>
    <trkpt lat="44.052958" lon="7.213171">
      <ele>1710</ele>
      <time>2026-05-29T21:49:27.000Z</time>
    </trkpt>
    <trkpt lat="44.053076" lon="7.214031">
      <ele>1707</ele>
      <time>2026-05-29T21:50:39.000Z</time>
    </trkpt>
    <trkpt lat="44.053144" lon="7.214224">
      <ele>1709</ele>
      <time>2026-05-29T21:51:17.000Z</time>
    </trkpt>
    <trkpt lat="44.053121" lon="7.214615">
      <ele>1704</ele>
      <time>2026-05-29T21:51:49.000Z</time>
    </trkpt>
    <trkpt lat="44.053122" lon="7.2148">
      <ele>1703</ele>
      <time>2026-05-29T21:52:04.000Z</time>
    </trkpt>
    <trkpt lat="44.053189" lon="7.215104">
      <ele>1704</ele>
      <time>2026-05-29T21:52:40.000Z</time>
    </trkpt>
    <trkpt lat="44.053269" lon="7.215306">
      <ele>1706</ele>
      <time>2026-05-29T21:53:20.000Z</time>
    </trkpt>
    <trkpt lat="44.053287" lon="7.21553">
      <ele>1705</ele>
      <time>2026-05-29T21:53:39.000Z</time>
    </trkpt>
    <trkpt lat="44.053531" lon="7.216602">
      <ele>1705</ele>
      <time>2026-05-29T21:55:12.000Z</time>
    </trkpt>
    <trkpt lat="44.054287" lon="7.216671">
      <ele>1706</ele>
      <time>2026-05-29T21:56:49.000Z</time>
    </trkpt>
    <trkpt lat="44.054756" lon="7.216799">
      <ele>1706</ele>
      <time>2026-05-29T21:57:44.000Z</time>
    </trkpt>
    <trkpt lat="44.054875" lon="7.216869">
      <ele>1706</ele>
      <time>2026-05-29T21:57:59.000Z</time>
    </trkpt>
    <trkpt lat="44.05498" lon="7.217038">
      <ele>1700</ele>
      <time>2026-05-29T21:58:17.000Z</time>
    </trkpt>
    <trkpt lat="44.05513" lon="7.217148">
      <ele>1702</ele>
      <time>2026-05-29T21:58:57.000Z</time>
    </trkpt>
    <trkpt lat="44.05569" lon="7.217344">
      <ele>1694</ele>
      <time>2026-05-29T22:00:03.000Z</time>
    </trkpt>
    <trkpt lat="44.055765" lon="7.217803">
      <ele>1688</ele>
      <time>2026-05-29T22:00:42.000Z</time>
    </trkpt>
    <trkpt lat="44.055898" lon="7.218103">
      <ele>1690</ele>
      <time>2026-05-29T22:01:32.000Z</time>
    </trkpt>
    <trkpt lat="44.056095" lon="7.218303">
      <ele>1690</ele>
      <time>2026-05-29T22:02:00.000Z</time>
    </trkpt>
    <trkpt lat="44.056255" lon="7.218348">
      <ele>1693</ele>
      <time>2026-05-29T22:02:50.000Z</time>
    </trkpt>
    <trkpt lat="44.056396" lon="7.218461">
      <ele>1694</ele>
      <time>2026-05-29T22:03:19.000Z</time>
    </trkpt>
    <trkpt lat="44.056432" lon="7.218635">
      <ele>1692</ele>
      <time>2026-05-29T22:03:34.000Z</time>
    </trkpt>
    <trkpt lat="44.056408" lon="7.218787">
      <ele>1690</ele>
      <time>2026-05-29T22:03:47.000Z</time>
    </trkpt>
    <trkpt lat="44.056442" lon="7.218908">
      <ele>1688</ele>
      <time>2026-05-29T22:03:58.000Z</time>
    </trkpt>
    <trkpt lat="44.056428" lon="7.218999">
      <ele>1686</ele>
      <time>2026-05-29T22:04:06.000Z</time>
    </trkpt>
    <trkpt lat="44.056635" lon="7.219285">
      <ele>1685</ele>
      <time>2026-05-29T22:04:39.000Z</time>
    </trkpt>
    <trkpt lat="44.056652" lon="7.219445">
      <ele>1685</ele>
      <time>2026-05-29T22:04:52.000Z</time>
    </trkpt>
    <trkpt lat="44.056596" lon="7.219702">
      <ele>1683</ele>
      <time>2026-05-29T22:05:14.000Z</time>
    </trkpt>
    <trkpt lat="44.056168" lon="7.220539">
      <ele>1676</ele>
      <time>2026-05-29T22:06:39.000Z</time>
    </trkpt>
    <trkpt lat="44.056144" lon="7.220682">
      <ele>1677</ele>
      <time>2026-05-29T22:07:01.000Z</time>
    </trkpt>
    <trkpt lat="44.056015" lon="7.221015">
      <ele>1674</ele>
      <time>2026-05-29T22:07:32.000Z</time>
    </trkpt>
    <trkpt lat="44.055976" lon="7.221304">
      <ele>1676</ele>
      <time>2026-05-29T22:08:17.000Z</time>
    </trkpt>
    <trkpt lat="44.055893" lon="7.221441">
      <ele>1671</ele>
      <time>2026-05-29T22:08:32.000Z</time>
    </trkpt>
    <trkpt lat="44.055764" lon="7.221946">
      <ele>1670</ele>
      <time>2026-05-29T22:09:16.000Z</time>
    </trkpt>
    <trkpt lat="44.055639" lon="7.222068">
      <ele>1666</ele>
      <time>2026-05-29T22:09:33.000Z</time>
    </trkpt>
    <trkpt lat="44.055377" lon="7.222612">
      <ele>1662</ele>
      <time>2026-05-29T22:10:27.000Z</time>
    </trkpt>
    <trkpt lat="44.055245" lon="7.223029">
      <ele>1659</ele>
      <time>2026-05-29T22:11:04.000Z</time>
    </trkpt>
    <trkpt lat="44.054792" lon="7.224001">
      <ele>1645</ele>
      <time>2026-05-29T22:12:39.000Z</time>
    </trkpt>
    <trkpt lat="44.054684" lon="7.224291">
      <ele>1643</ele>
      <time>2026-05-29T22:13:06.000Z</time>
    </trkpt>
    <trkpt lat="44.054637" lon="7.224705">
      <ele>1637</ele>
      <time>2026-05-29T22:13:40.000Z</time>
    </trkpt>
    <trkpt lat="44.054686" lon="7.224788">
      <ele>1636</ele>
      <time>2026-05-29T22:13:49.000Z</time>
    </trkpt>
    <trkpt lat="44.054769" lon="7.224796">
      <ele>1636</ele>
      <time>2026-05-29T22:13:59.000Z</time>
    </trkpt>
    <trkpt lat="44.05513" lon="7.224627">
      <ele>1635</ele>
      <time>2026-05-29T22:14:43.000Z</time>
    </trkpt>
    <trkpt lat="44.055236" lon="7.224624">
      <ele>1633</ele>
      <time>2026-05-29T22:14:55.000Z</time>
    </trkpt>
    <trkpt lat="44.055468" lon="7.224748">
      <ele>1629</ele>
      <time>2026-05-29T22:15:23.000Z</time>
    </trkpt>
    <trkpt lat="44.055638" lon="7.224888">
      <ele>1623</ele>
      <time>2026-05-29T22:15:46.000Z</time>
    </trkpt>
    <trkpt lat="44.055997" lon="7.225442">
      <ele>1615</ele>
      <time>2026-05-29T22:16:47.000Z</time>
    </trkpt>
    <trkpt lat="44.056207" lon="7.225847">
      <ele>1612</ele>
      <time>2026-05-29T22:17:28.000Z</time>
    </trkpt>
    <trkpt lat="44.056219" lon="7.226482">
      <ele>1597</ele>
      <time>2026-05-29T22:18:20.000Z</time>
    </trkpt>
    <trkpt lat="44.056187" lon="7.226561">
      <ele>1594</ele>
      <time>2026-05-29T22:18:27.000Z</time>
    </trkpt>
    <trkpt lat="44.056219" lon="7.226482">
      <ele>1597</ele>
      <time>2026-05-29T22:19:05.000Z</time>
    </trkpt>
    <trkpt lat="44.056565" lon="7.226505">
      <ele>1605</ele>
      <time>2026-05-29T22:21:07.000Z</time>
    </trkpt>
    <trkpt lat="44.056762" lon="7.226625">
      <ele>1607</ele>
      <time>2026-05-29T22:21:52.000Z</time>
    </trkpt>
    <trkpt lat="44.057216" lon="7.226766">
      <ele>1613</ele>
      <time>2026-05-29T22:23:47.000Z</time>
    </trkpt>
    <trkpt lat="44.057714" lon="7.227077">
      <ele>1618</ele>
      <time>2026-05-29T22:25:41.000Z</time>
    </trkpt>
    <trkpt lat="44.058042" lon="7.227193">
      <ele>1619</ele>
      <time>2026-05-29T22:26:30.000Z</time>
    </trkpt>
    <trkpt lat="44.058786" lon="7.227679">
      <ele>1625</ele>
      <time>2026-05-29T22:29:06.000Z</time>
    </trkpt>
    <trkpt lat="44.059202" lon="7.22804">
      <ele>1627</ele>
      <time>2026-05-29T22:30:23.000Z</time>
    </trkpt>
    <trkpt lat="44.059633" lon="7.228245">
      <ele>1630</ele>
      <time>2026-05-29T22:31:46.000Z</time>
    </trkpt>
    <trkpt lat="44.060072" lon="7.228513">
      <ele>1636</ele>
      <time>2026-05-29T22:33:43.000Z</time>
    </trkpt>
    <trkpt lat="44.060203" lon="7.228524">
      <ele>1638</ele>
      <time>2026-05-29T22:34:19.000Z</time>
    </trkpt>
    <trkpt lat="44.060389" lon="7.228467">
      <ele>1641</ele>
      <time>2026-05-29T22:35:12.000Z</time>
    </trkpt>
    <trkpt lat="44.060386" lon="7.228346">
      <ele>1642</ele>
      <time>2026-05-29T22:35:32.000Z</time>
    </trkpt>
    <trkpt lat="44.060544" lon="7.228469">
      <ele>1642</ele>
      <time>2026-05-29T22:35:53.000Z</time>
    </trkpt>
    <trkpt lat="44.060619" lon="7.228489">
      <ele>1642</ele>
      <time>2026-05-29T22:36:02.000Z</time>
    </trkpt>
    <trkpt lat="44.061206" lon="7.229392">
      <ele>1660</ele>
      <time>2026-05-29T22:40:47.000Z</time>
    </trkpt>
    <trkpt lat="44.061542" lon="7.229355">
      <ele>1664</ele>
      <time>2026-05-29T22:42:07.000Z</time>
    </trkpt>
    <trkpt lat="44.062004" lon="7.229395">
      <ele>1667</ele>
      <time>2026-05-29T22:43:31.000Z</time>
    </trkpt>
    <trkpt lat="44.062255" lon="7.229496">
      <ele>1666</ele>
      <time>2026-05-29T22:44:01.000Z</time>
    </trkpt>
    <trkpt lat="44.062438" lon="7.229665">
      <ele>1668</ele>
      <time>2026-05-29T22:44:47.000Z</time>
    </trkpt>
    <trkpt lat="44.062574" lon="7.22986">
      <ele>1670</ele>
      <time>2026-05-29T22:45:30.000Z</time>
    </trkpt>
    <trkpt lat="44.062654" lon="7.230036">
      <ele>1670</ele>
      <time>2026-05-29T22:45:47.000Z</time>
    </trkpt>
    <trkpt lat="44.062798" lon="7.230961">
      <ele>1682</ele>
      <time>2026-05-29T22:49:08.000Z</time>
    </trkpt>
    <trkpt lat="44.063075" lon="7.231799">
      <ele>1685</ele>
      <time>2026-05-29T22:50:55.000Z</time>
    </trkpt>
    <trkpt lat="44.063333" lon="7.232217">
      <ele>1689</ele>
      <time>2026-05-29T22:52:21.000Z</time>
    </trkpt>
    <trkpt lat="44.064276" lon="7.233449">
      <ele>1701</ele>
      <time>2026-05-29T22:56:53.000Z</time>
    </trkpt>
    <trkpt lat="44.064367" lon="7.233662">
      <ele>1706</ele>
      <time>2026-05-29T22:58:05.000Z</time>
    </trkpt>
    <trkpt lat="44.06453" lon="7.23435">
      <ele>1709</ele>
      <time>2026-05-29T22:59:35.000Z</time>
    </trkpt>
    <trkpt lat="44.064557" lon="7.234433">
      <ele>1707</ele>
      <time>2026-05-29T22:59:42.000Z</time>
    </trkpt>
    <trkpt lat="44.065663" lon="7.235231">
      <ele>1675</ele>
      <time>2026-05-29T23:02:05.000Z</time>
    </trkpt>
    <trkpt lat="44.066368" lon="7.235914">
      <ele>1656</ele>
      <time>2026-05-29T23:03:43.000Z</time>
    </trkpt>
    <trkpt lat="44.067135" lon="7.236343">
      <ele>1646</ele>
      <time>2026-05-29T23:05:18.000Z</time>
    </trkpt>
    <trkpt lat="44.067621" lon="7.236532">
      <ele>1639</ele>
      <time>2026-05-29T23:06:16.000Z</time>
    </trkpt>
    <trkpt lat="44.067819" lon="7.236554">
      <ele>1634</ele>
      <time>2026-05-29T23:06:39.000Z</time>
    </trkpt>
    <trkpt lat="44.067967" lon="7.236507">
      <ele>1629</ele>
      <time>2026-05-29T23:06:56.000Z</time>
    </trkpt>
    <trkpt lat="44.068164" lon="7.236305">
      <ele>1620</ele>
      <time>2026-05-29T23:07:24.000Z</time>
    </trkpt>
    <trkpt lat="44.068205" lon="7.236129">
      <ele>1616</ele>
      <time>2026-05-29T23:07:39.000Z</time>
    </trkpt>
    <trkpt lat="44.068256" lon="7.236112">
      <ele>1614</ele>
      <time>2026-05-29T23:07:45.000Z</time>
    </trkpt>
    <trkpt lat="44.068276" lon="7.23588">
      <ele>1608</ele>
      <time>2026-05-29T23:08:04.000Z</time>
    </trkpt>
    <trkpt lat="44.068352" lon="7.23579">
      <ele>1604</ele>
      <time>2026-05-29T23:08:15.000Z</time>
    </trkpt>
    <trkpt lat="44.06831" lon="7.235606">
      <ele>1598</ele>
      <time>2026-05-29T23:08:31.000Z</time>
    </trkpt>
    <trkpt lat="44.06865" lon="7.235211">
      <ele>1577</ele>
      <time>2026-05-29T23:09:22.000Z</time>
    </trkpt>
    <trkpt lat="44.068653" lon="7.235053">
      <ele>1572</ele>
      <time>2026-05-29T23:09:35.000Z</time>
    </trkpt>
    <trkpt lat="44.068817" lon="7.234976">
      <ele>1564</ele>
      <time>2026-05-29T23:09:55.000Z</time>
    </trkpt>
    <trkpt lat="44.068866" lon="7.234877">
      <ele>1559</ele>
      <time>2026-05-29T23:10:05.000Z</time>
    </trkpt>
    <trkpt lat="44.068875" lon="7.234759">
      <ele>1556</ele>
      <time>2026-05-29T23:10:15.000Z</time>
    </trkpt>
    <trkpt lat="44.06899" lon="7.234756">
      <ele>1552</ele>
      <time>2026-05-29T23:10:28.000Z</time>
    </trkpt>
    <trkpt lat="44.069184" lon="7.234542">
      <ele>1541</ele>
      <time>2026-05-29T23:10:56.000Z</time>
    </trkpt>
    <trkpt lat="44.069434" lon="7.234147">
      <ele>1518</ele>
      <time>2026-05-29T23:11:39.000Z</time>
    </trkpt>
    <trkpt lat="44.069574" lon="7.233859">
      <ele>1506</ele>
      <time>2026-05-29T23:12:08.000Z</time>
    </trkpt>
    <trkpt lat="44.070059" lon="7.233596">
      <ele>1485</ele>
      <time>2026-05-29T23:13:08.000Z</time>
    </trkpt>
    <trkpt lat="44.070008" lon="7.233347">
      <ele>1479</ele>
      <time>2026-05-29T23:13:29.000Z</time>
    </trkpt>
    <trkpt lat="44.070134" lon="7.233548">
      <ele>1482</ele>
      <time>2026-05-29T23:14:22.000Z</time>
    </trkpt>
    <trkpt lat="44.069688" lon="7.232857">
      <ele>1475</ele>
      <time>2026-05-29T23:15:38.000Z</time>
    </trkpt>
    <trkpt lat="44.069451" lon="7.231632">
      <ele>1443</ele>
      <time>2026-05-29T23:17:22.000Z</time>
    </trkpt>
    <trkpt lat="44.068952" lon="7.230019">
      <ele>1430</ele>
      <time>2026-05-29T23:19:46.000Z</time>
    </trkpt>
    <trkpt lat="44.068876" lon="7.229529">
      <ele>1429</ele>
      <time>2026-05-29T23:20:27.000Z</time>
    </trkpt>
    <trkpt lat="44.068947" lon="7.22927">
      <ele>1429</ele>
      <time>2026-05-29T23:20:50.000Z</time>
    </trkpt>
    <trkpt lat="44.069024" lon="7.229207">
      <ele>1430</ele>
      <time>2026-05-29T23:21:11.000Z</time>
    </trkpt>
    <trkpt lat="44.069035" lon="7.229451">
      <ele>1428</ele>
      <time>2026-05-29T23:21:31.000Z</time>
    </trkpt>
    <trkpt lat="44.069024" lon="7.229207">
      <ele>1430</ele>
      <time>2026-05-29T23:22:12.000Z</time>
    </trkpt>
    <trkpt lat="44.069069" lon="7.229097">
      <ele>1430</ele>
      <time>2026-05-29T23:22:22.000Z</time>
    </trkpt>
    <trkpt lat="44.069249" lon="7.228783">
      <ele>1432</ele>
      <time>2026-05-29T23:23:16.000Z</time>
    </trkpt>
    <trkpt lat="44.069334" lon="7.228568">
      <ele>1433</ele>
      <time>2026-05-29T23:23:46.000Z</time>
    </trkpt>
    <trkpt lat="44.069454" lon="7.228462">
      <ele>1435</ele>
      <time>2026-05-29T23:24:23.000Z</time>
    </trkpt>
    <trkpt lat="44.069517" lon="7.228319">
      <ele>1436</ele>
      <time>2026-05-29T23:24:47.000Z</time>
    </trkpt>
    <trkpt lat="44.069346" lon="7.228144">
      <ele>1437</ele>
      <time>2026-05-29T23:25:22.000Z</time>
    </trkpt>
    <trkpt lat="44.06921" lon="7.228161">
      <ele>1437</ele>
      <time>2026-05-29T23:25:38.000Z</time>
    </trkpt>
    <trkpt lat="44.069157" lon="7.228208">
      <ele>1436</ele>
      <time>2026-05-29T23:25:45.000Z</time>
    </trkpt>
    <trkpt lat="44.069445" lon="7.227625">
      <ele>1443</ele>
      <time>2026-05-29T23:27:55.000Z</time>
    </trkpt>
    <trkpt lat="44.069639" lon="7.227069">
      <ele>1451</ele>
      <time>2026-05-29T23:30:08.000Z</time>
    </trkpt>
    <trkpt lat="44.069803" lon="7.226744">
      <ele>1454</ele>
      <time>2026-05-29T23:31:12.000Z</time>
    </trkpt>
    <trkpt lat="44.069909" lon="7.226268">
      <ele>1462</ele>
      <time>2026-05-29T23:33:15.000Z</time>
    </trkpt>
    <trkpt lat="44.06998" lon="7.226139">
      <ele>1463</ele>
      <time>2026-05-29T23:33:39.000Z</time>
    </trkpt>
    <trkpt lat="44.070126" lon="7.225648">
      <ele>1471</ele>
      <time>2026-05-29T23:35:45.000Z</time>
    </trkpt>
    <trkpt lat="44.070182" lon="7.225561">
      <ele>1471</ele>
      <time>2026-05-29T23:35:55.000Z</time>
    </trkpt>
    <trkpt lat="44.070422" lon="7.224925">
      <ele>1479</ele>
      <time>2026-05-29T23:38:16.000Z</time>
    </trkpt>
    <trkpt lat="44.070514" lon="7.224565">
      <ele>1483</ele>
      <time>2026-05-29T23:39:29.000Z</time>
    </trkpt>
    <trkpt lat="44.07064" lon="7.224354">
      <ele>1486</ele>
      <time>2026-05-29T23:40:22.000Z</time>
    </trkpt>
    <trkpt lat="44.070801" lon="7.223861">
      <ele>1493</ele>
      <time>2026-05-29T23:42:19.000Z</time>
    </trkpt>
    <trkpt lat="44.070888" lon="7.22382">
      <ele>1494</ele>
      <time>2026-05-29T23:42:40.000Z</time>
    </trkpt>
    <trkpt lat="44.071068" lon="7.222565">
      <ele>1498</ele>
      <time>2026-05-29T23:45:06.000Z</time>
    </trkpt>
    <trkpt lat="44.071058" lon="7.222453">
      <ele>1497</ele>
      <time>2026-05-29T23:45:15.000Z</time>
    </trkpt>
    <trkpt lat="44.070879" lon="7.221859">
      <ele>1502</ele>
      <time>2026-05-29T23:46:59.000Z</time>
    </trkpt>
    <trkpt lat="44.070909" lon="7.22161">
      <ele>1502</ele>
      <time>2026-05-29T23:47:20.000Z</time>
    </trkpt>
    <trkpt lat="44.07108" lon="7.220919">
      <ele>1500</ele>
      <time>2026-05-29T23:48:20.000Z</time>
    </trkpt>
  </trkseg>
</trk></gpx>